[[{"header":{"parameterUnit":"m.s-1","parameterCategory":1,"la1":30.2991,"la2":30.254,"lo1":-89.0895,"lo2":-89.0444,"dy":0.0017,"dx":0.0017,"nx":28,"ny":28,"refTime":"2025-04-25T09:00:00:Z","depth":0,"parameterNumber":2,"parameterNumberName":"U-component_of_WINDS"},"data":[0,0,0,0,0,0,0,0,0,0,0,0,0,0,0,0,0,0,0,0,0,0,0,0,0,0,0,0,0,0,0,0,0,0,0,0,0,0,0,0,0,0,0,0,0,0,0,0,0,0,0,0,0,0,0,0,0,0,0.4338,0.4339,0,0.4404,0.4405,0.4406,0.4422,0.4421,0.4421,0.442,0.4488,0.4491,0.4493,0,0,0,0,0,0,0,0,0,0,0,0,0,0.4224,0.4226,0.4338,0.4339,0.4339,0.4404,0.4405,0.4406,0.4422,0.4421,0.4421,0.442,0.4488,0.449,0.4493,0,0,0,0,0,0,0,0,0,0,0,0,0,0.428,0.4226,0.4338,0.4355,0.4357,0.4404,0.4405,0.4406,0.4422,0.4421,0.4421,0.442,0.4487,0.449,0.4493,0.4527,0,0,0.4503,0.4505,0,0,0,0,0,0,0,0,0.4277,0.4284,0.4352,0.4354,0.4357,0.4404,0.439,0.4447,0.4422,0.4397,0.442,0.442,0.4461,0.4466,0.448,0.453,0.4533,0.4504,0.4506,0.4507,0.4508,0,0,0,0,0,0,0,0.4273,0.4281,0.4364,0.4353,0.4356,0.4359,0.4367,0.44,0.4432,0.44,0.4401,0.4408,0.4462,0.4477,0.4482,0.4534,0.4504,0.4507,0.4509,0.451,0.4614,0.4614,0,0,0,0,0,0,0.4266,0.4278,0.4362,0.4366,0.4314,0.4362,0.437,0.4389,0.4432,0.4437,0.4409,0.4409,0.4472,0.4478,0.4484,0.4526,0.4507,0.451,0.4512,0.4613,0.4614,0.4615,0,0,0,0,0,0,0.4263,0.4273,0.4359,0.4322,0.4334,0.4365,0.4386,0.4391,0.4406,0.4439,0.4444,0.4418,0.4471,0.448,0.4516,0.4528,0.4512,0.4515,0.4612,0.4613,0.4614,0.4609,0,0,0,0,0,0,0.426,0.4272,0.4286,0.4323,0.4335,0.439,0.4387,0.4393,0.4412,0.4412,0.4449,0.4455,0.4471,0.4511,0.4519,0.4533,0.4517,0.4611,0.4613,0.4614,0.4608,0.461,0.4611,0,0,0,0,0,0.4256,0.4282,0.4286,0.4296,0.4353,0.4391,0.4398,0.4417,0.4413,0.4426,0.4447,0.4454,0.4526,0.4514,0.4524,0.4539,0.461,0.4612,0.4614,0.4608,0.461,0.4611,0,0,0,0,0,0,0.4246,0.4287,0.4292,0.4331,0.4357,0.4393,0.4411,0.4419,0.4446,0.4446,0.4468,0.4476,0.4511,0.4528,0.4515,0.4573,0.4568,0.4572,0.456,0.4562,0.4564,0.4559,0.452,0,0,0,0,0,0.4248,0.4276,0.431,0.4341,0.4354,0.438,0.4397,0.4409,0.4437,0.4448,0.4472,0.4499,0.4527,0.4546,0.4574,0.4611,0.4619,0.4626,0.4627,0.4628,0.4631,0.4651,0.4654,0.462,0.462,0.462,0,0,0.4253,0.4279,0.4295,0.434,0.4361,0.4389,0.4389,0.4419,0.4439,0.4453,0.4488,0.4506,0.4538,0.4574,0.4591,0.459,0.4642,0.463,0.4631,0.4633,0.4653,0.4656,0.4659,0.4621,0.4621,0.4621,0,0,0.4277,0.4299,0.4327,0.4349,0.4381,0.4398,0.4405,0.444,0.4452,0.4488,0.4498,0.4523,0.4572,0.4593,0.4611,0.464,0.4647,0.4649,0.4657,0.4676,0.4679,0.4681,0.4691,0.4694,0.4652,0.4652,0.4652,0,0.4279,0.4321,0.434,0.4369,0.4388,0.4401,0.4429,0.4449,0.4489,0.4501,0.4499,0.456,0.4582,0.4623,0.463,0.4644,0.4651,0.4645,0.4677,0.4679,0.4682,0.4692,0.4695,0.4652,0.4652,0.4652,0.4652,0,0.4322,0.4351,0.4369,0.4407,0.4428,0.4456,0.4479,0.4498,0.4507,0.4524,0.456,0.4587,0.462,0.4631,0.4641,0.4673,0.4671,0.4672,0.4668,0.4685,0.4694,0.4698,0.4652,0.4652,0.4652,0.4652,0,0,0.4342,0.4389,0.4396,0.4412,0.4449,0.4471,0.4499,0.4532,0.4547,0.4574,0.4597,0.4638,0.4639,0.4658,0.4671,0.4688,0.4708,0.4687,0.4688,0.4689,0.4744,0.4743,0.4747,0.4713,0.4714,0.4714,0.4741,0,0.4369,0.442,0.4438,0.448,0.4506,0.4518,0.4542,0.4567,0.4583,0.4608,0.4626,0.4654,0.4654,0.4665,0.4682,0.4702,0.472,0.47,0.4735,0.4736,0.4726,0.4752,0.4751,0.4775,0.4745,0.4746,0.4747,0,0.4408,0.4435,0.448,0.4512,0.4523,0.4545,0.4575,0.4599,0.4626,0.4637,0.4658,0.4669,0.4698,0.4691,0.4731,0.4718,0.4733,0.4744,0.4746,0.475,0.4742,0.4756,0.4784,0.4787,0.4753,0.4752,0.4752,0,0.4417,0.4465,0.4497,0.4511,0.455,0.4564,0.4581,0.4608,0.4626,0.4652,0.4664,0.4693,0.4709,0.4731,0.475,0.4743,0.4788,0.4783,0.4797,0.4796,0.4806,0.4805,0.4836,0.4816,0.4816,0.4816,0.4815,0,0.4446,0.4473,0.4502,0.4522,0.4551,0.4571,0.4599,0.4617,0.464,0.4663,0.4676,0.4697,0.472,0.4744,0.4758,0.4789,0.4796,0.4805,0.4809,0.4804,0.4803,0.4814,0.4813,0.4817,0.4816,0.4816,0.4816,0,0.4461,0.4482,0.4518,0.4551,0.456,0.458,0.4608,0.4627,0.4644,0.4673,0.4681,0.4706,0.4735,0.4756,0.4793,0.4802,0.4835,0.4839,0.4826,0.4827,0.484,0.4838,0.4879,0.4885,0.4861,0.4861,0.4861,0,0.4478,0.4499,0.4534,0.455,0.4566,0.4593,0.4611,0.463,0.4648,0.468,0.4696,0.4725,0.475,0.4795,0.4817,0.4845,0.4849,0.4862,0.4854,0.4848,0.4849,0.4847,0.4849,0.4863,0.4863,0.4863,0.4863,0,0.4506,0.4514,0.454,0.4569,0.459,0.4614,0.4638,0.4651,0.4674,0.4694,0.4723,0.4742,0.478,0.4809,0.4839,0.4855,0.4863,0.4865,0.487,0.4865,0.4857,0.4861,0.4828,0.4865,0.4864,0.4864,0.4864,0.4864,0.4522,0.454,0.4567,0.4595,0.4615,0.4637,0.4657,0.4675,0.47,0.4732,0.4742,0.4772,0.4798,0.4839,0.4856,0.488,0.4879,0.4886,0.4887,0.4889,0.4888,0.4853,0.4885,0.4885,0.4885,0.4885,0.4885,0,0.4549,0.4567,0.4593,0.4625,0.4647,0.4652,0.4679,0.4696,0.4723,0.4746,0.477,0.4803,0.4831,0.4855,0.4883,0.4898,0.4902,0.4904,0.4903,0.4907,0.4888,0.488,0.49,0.49,0.49,0.49,0.49,0.49,0.4566,0.4598,0.4609,0.465,0.4668,0.4698,0.4712,0.4732,0.4751,0.4787,0.481,0.4825,0.4849,0.4879,0.4904,0.491,0.492,0.4922,0.4929,0.491,0.4908,0.4907,0.49,0.4924,0.4924,0.4946,0.4946,0.4946]},{"header":{"parameterUnit":"m.s-1","parameterCategory":1,"la1":30.2991,"la2":30.254,"lo1":-89.0895,"lo2":-89.0444,"dy":0.0017,"dx":0.0017,"nx":28,"ny":28,"refTime":"2025-04-25T09:00:00:Z","depth":0,"parameterNumber":3,"parameterNumberName":"V-component_of_WINDS"},"data":[0,0,0,0,0,0,0,0,0,0,0,0,0,0,0,0,0,0,0,0,0,0,0,0,0,0,0,0,0,0,0,0,0,0,0,0,0,0,0,0,0,0,0,0,0,0,0,0,0,0,0,0,0,0,0,0,0,0,2.5598,2.5598,0,2.5571,2.5571,2.5571,2.5516,2.5515,2.5514,2.5513,2.5487,2.5487,2.5487,0,0,0,0,0,0,0,0,0,0,0,0,0,2.5603,2.5603,2.5598,2.5598,2.5598,2.5571,2.5571,2.5571,2.5516,2.5515,2.5514,2.5512,2.5487,2.5487,2.5487,0,0,0,0,0,0,0,0,0,0,0,0,0,2.5591,2.5603,2.5598,2.5567,2.5564,2.5572,2.5571,2.5571,2.5517,2.5515,2.5513,2.5512,2.5486,2.5487,2.5487,2.5523,0,0,2.5489,2.5489,0,0,0,0,0,0,0,0,2.5592,2.5591,2.5572,2.5569,2.5566,2.5545,2.5563,2.5555,2.5517,2.5535,2.5513,2.5511,2.5508,2.5506,2.5505,2.5522,2.5521,2.5489,2.5489,2.5489,2.549,0,0,0,0,0,0,0,2.5593,2.5592,2.5588,2.5572,2.5568,2.5555,2.5551,2.5561,2.5531,2.5533,2.5529,2.5526,2.5506,2.5505,2.5504,2.5521,2.5489,2.5489,2.549,2.549,2.5566,2.5567,0,0,0,0,0,0,2.5598,2.5593,2.5588,2.5587,2.5575,2.5556,2.5552,2.5554,2.553,2.5525,2.5528,2.5524,2.5505,2.5503,2.5503,2.5543,2.5489,2.549,2.549,2.5564,2.5566,2.5568,0,0,0,0,0,0,2.5598,2.5598,2.559,2.5589,2.5587,2.5558,2.556,2.5554,2.5553,2.5527,2.5521,2.5532,2.5503,2.5502,2.5518,2.5542,2.549,2.5491,2.5562,2.5564,2.5567,2.5625,0,0,0,0,0,0,2.5599,2.5599,2.5612,2.559,2.5587,2.5606,2.5561,2.5555,2.5554,2.5548,2.5529,2.5525,2.5502,2.5518,2.5519,2.5541,2.5491,2.556,2.5563,2.5566,2.562,2.5629,2.5636,0,0,0,0,0,2.5599,2.5629,2.5613,2.5613,2.5603,2.5607,2.5606,2.5579,2.5556,2.5569,2.5552,2.5525,2.5539,2.552,2.5521,2.5544,2.5558,2.5562,2.5566,2.5617,2.5627,2.5636,0,0,0,0,0,0,2.5656,2.5626,2.5607,2.5631,2.5622,2.5598,2.5614,2.559,2.5588,2.5583,2.555,2.5546,2.5567,2.5557,2.5536,2.5577,2.5544,2.5548,2.5583,2.5592,2.56,2.5602,2.5491,0,0,0,0,0,2.5671,2.5677,2.565,2.5674,2.567,2.5643,2.5644,2.5624,2.5613,2.5609,2.5593,2.5584,2.5586,2.5589,2.5589,2.5618,2.5614,2.5634,2.5642,2.5649,2.5653,2.5668,2.5677,2.558,2.558,2.558,0,0,2.5703,2.5687,2.5693,2.5685,2.5676,2.5683,2.564,2.5649,2.5654,2.5611,2.5625,2.5613,2.5601,2.5624,2.5633,2.5616,2.5678,2.5654,2.5659,2.566,2.5672,2.5682,2.569,2.5583,2.5583,2.5582,0,0,2.5764,2.5753,2.5771,2.5762,2.5748,2.573,2.5734,2.5714,2.5704,2.5718,2.5685,2.569,2.5695,2.5687,2.5684,2.5742,2.5718,2.5743,2.5784,2.5799,2.5806,2.5813,2.5834,2.5842,2.5748,2.5748,2.5748,0,2.5805,2.5814,2.5784,2.5795,2.5792,2.5752,2.5771,2.5764,2.5752,2.5751,2.5732,2.5736,2.5725,2.5746,2.576,2.5759,2.5763,2.5746,2.5808,2.5814,2.582,2.5839,2.5847,2.5751,2.5751,2.575,2.575,0,2.5865,2.5872,2.5889,2.5877,2.5876,2.5891,2.5863,2.5866,2.5846,2.583,2.5844,2.583,2.5826,2.583,2.581,2.5848,2.5838,2.5814,2.578,2.5833,2.585,2.5858,2.5756,2.5754,2.5753,2.5753,0,0,2.5962,2.5933,2.594,2.5934,2.5915,2.592,2.5933,2.5929,2.5933,2.5925,2.5936,2.594,2.5917,2.5914,2.5893,2.5906,2.5953,2.588,2.588,2.5895,2.5994,2.6012,2.6022,2.5936,2.5938,2.5939,2.5995,0,2.602,2.604,2.6013,2.604,2.6045,2.6007,2.6019,2.6009,2.5994,2.5997,2.598,2.5984,2.5953,2.5951,2.5962,2.5945,2.5973,2.5941,2.5946,2.5947,2.5951,2.6031,2.6051,2.6104,2.6002,2.6003,2.6004,0,2.609,2.6085,2.6112,2.6092,2.6093,2.6104,2.6098,2.6101,2.6089,2.6077,2.6073,2.6048,2.606,2.6027,2.6042,2.6021,2.6022,2.6014,2.6015,2.6015,2.5979,2.6033,2.6121,2.6129,2.6014,2.6013,2.6013,0,2.6158,2.6159,2.6175,2.6171,2.6147,2.6156,2.6146,2.6132,2.6132,2.6127,2.6126,2.6123,2.6122,2.612,2.6095,2.6073,2.6114,2.6078,2.6104,2.6105,2.6115,2.6115,2.6204,2.6115,2.6115,2.6114,2.6114,0,2.6226,2.6244,2.6205,2.6215,2.6234,2.6203,2.6223,2.621,2.6198,2.6205,2.6171,2.6179,2.6145,2.6148,2.6129,2.6145,2.6144,2.6135,2.613,2.6138,2.614,2.6139,2.6135,2.6117,2.6116,2.6116,2.6115,0,2.6306,2.628,2.6296,2.6272,2.6266,2.6282,2.6261,2.627,2.6252,2.6261,2.6262,2.6234,2.6237,2.6211,2.6209,2.6196,2.6221,2.6209,2.6225,2.6222,2.6249,2.6247,2.6342,2.6352,2.6256,2.6257,2.6258,0,2.6351,2.6364,2.6341,2.6343,2.6335,2.6339,2.6338,2.6307,2.6308,2.6295,2.6305,2.6305,2.6303,2.6309,2.6289,2.6287,2.6275,2.6308,2.6275,2.6283,2.6276,2.6276,2.6277,2.6316,2.6317,2.6318,2.6319,0,2.6433,2.642,2.642,2.6415,2.6415,2.641,2.6403,2.6407,2.6374,2.6376,2.6378,2.6376,2.6374,2.6374,2.6368,2.6359,2.6334,2.6329,2.6335,2.6344,2.6354,2.6349,2.6245,2.6327,2.6327,2.6326,2.6325,2.6325,2.6497,2.6507,2.6492,2.6493,2.6485,2.6479,2.6486,2.6469,2.647,2.6465,2.6447,2.6452,2.6439,2.6429,2.6421,2.6425,2.6409,2.6418,2.642,2.6423,2.6428,2.6352,2.6424,2.6424,2.6423,2.6423,2.6423,0,2.6578,2.6567,2.6568,2.6559,2.656,2.6535,2.6526,2.6528,2.6533,2.6523,2.6522,2.6524,2.6524,2.6504,2.6502,2.6509,2.6497,2.6509,2.6509,2.6507,2.6442,2.6437,2.6519,2.6519,2.6519,2.6519,2.6519,2.6518,2.6621,2.6636,2.6621,2.6632,2.662,2.6625,2.6622,2.6616,2.6608,2.6612,2.6611,2.6598,2.6584,2.658,2.6579,2.6573,2.6574,2.659,2.658,2.6521,2.6511,2.6503,2.6498,2.659,2.6591,2.6645,2.6645,2.6646]}]]